Track SPACE STATION now! 10-day predictions The ISS Notification Tool HD Live streaming from Space Station SPACE STATION is classified as:
1 25544U 98067A 26157.86947977 .00009276 00000-0 17237-3 0 9995 2 25544 51.6338 351.1688 0006978 142.0049 218.1433 15.49642340570158